Time,TemperatureF,DewpointF,PressureIn,WindDirection,WindDirectionDegrees,WindSpeedMPH,WindSpeedGustMPH,Humidity,HourlyPrecipIn,Conditions,Clouds,dailyrainin,SolarRadiationWatts/m^2,SoftwareType,DateUTC
2013-10-27 00:03:00,37.0,31.0,-100.00,NE,51,2.0,8.0,79,0.00,,,0.00,0.000000,,2013-10-27 08:03:00,
2013-10-27 00:11:00,37.0,31.0,-100.00,NE,51,2.0,8.0,79,0.00,,,0.00,0.000000,,2013-10-27 08:11:00,
2013-10-27 00:22:00,37.0,31.0,-100.00,NE,51,2.0,8.0,79,0.00,,,0.00,0.000000,,2013-10-27 08:22:00,
2013-10-27 00:52:00,36.0,31.0,-100.00,NNW,330,0.0,7.0,82,0.00,,,0.00,0.000000,,2013-10-27 08:52:00,
2013-10-27 01:02:00,36.0,31.0,-100.00,NNW,330,0.0,7.0,82,0.00,,,0.00,0.000000,,2013-10-27 09:02:00,
2013-10-27 01:12:00,36.0,31.0,-100.00,NNW,330,0.0,7.0,82,0.00,,,0.00,0.000000,,2013-10-27 09:12:00,
2013-10-27 01:21:00,36.0,31.0,-100.00,NNW,330,0.0,7.0,82,0.00,,,0.00,0.000000,,2013-10-27 09:21:00,
2013-10-27 01:54:00,36.0,31.0,-100.00,WNW,296,0.0,4.0,82,0.00,,,0.00,0.000000,,2013-10-27 09:54:00,
2013-10-27 02:03:00,36.0,31.0,-100.00,WNW,296,0.0,4.0,82,0.00,,,0.00,0.000000,,2013-10-27 10:03:00,
2013-10-27 02:12:00,36.0,31.0,-100.00,WNW,296,0.0,4.0,82,0.00,,,0.00,0.000000,,2013-10-27 10:12:00,
2013-10-27 02:23:00,36.0,31.0,-100.00,WNW,296,0.0,4.0,82,0.00,,,0.00,0.000000,,2013-10-27 10:23:00,
2013-10-27 02:53:00,36.0,31.0,-100.00,NNE,31,3.0,4.0,81,0.00,,,-99.99,0.000000,,2013-10-27 10:53:00,
2013-10-27 03:02:00,36.0,31.0,-100.00,NNE,31,3.0,4.0,81,0.00,,,-99.99,0.000000,,2013-10-27 11:02:00,
2013-10-27 03:12:00,36.0,31.0,-100.00,NNE,31,3.0,4.0,81,0.00,,,-99.99,0.000000,,2013-10-27 11:12:00,
2013-10-27 03:22:00,36.0,31.0,-100.00,NNE,31,3.0,4.0,81,0.00,,,-99.99,0.000000,,2013-10-27 11:22:00,
2013-10-27 03:52:00,39.0,34.0,-100.00,NE,47,5.0,9.0,81,0.00,,,0.00,0.000000,,2013-10-27 11:52:00,
2013-10-27 04:01:00,39.0,34.0,-100.00,NE,47,5.0,9.0,81,0.00,,,0.00,0.000000,,2013-10-27 12:01:00,
2013-10-27 04:12:00,39.0,34.0,-100.00,NE,47,5.0,9.0,81,0.00,,,0.00,0.000000,,2013-10-27 12:12:00,
2013-10-27 04:22:00,39.0,34.0,-100.00,NE,47,5.0,9.0,81,0.00,,,0.00,0.000000,,2013-10-27 12:22:00,
2013-10-27 04:52:00,44.0,37.0,-100.00,NE,52,7.0,18.0,75,0.01,,,0.01,0.000000,,2013-10-27 12:52:00,
2013-10-27 05:02:00,44.0,37.0,-100.00,NE,52,7.0,18.0,75,0.01,,,0.01,0.000000,,2013-10-27 13:02:00,
2013-10-27 05:12:00,44.0,37.0,-100.00,NE,52,7.0,18.0,75,0.01,,,0.01,0.000000,,2013-10-27 13:12:00,
2013-10-27 05:21:00,44.0,37.0,-100.00,NE,52,7.0,18.0,75,0.01,,,0.01,0.000000,,2013-10-27 13:21:00,
2013-10-27 05:52:00,42.0,37.0,-100.00,NNE,24,4.0,12.0,82,0.01,,,0.02,0.000000,,2013-10-27 13:52:00,
2013-10-27 06:02:00,42.0,37.0,-100.00,NNE,24,4.0,12.0,82,0.01,,,0.02,0.000000,,2013-10-27 14:02:00,
2013-10-27 06:11:00,42.0,37.0,-100.00,NNE,24,4.0,12.0,82,0.01,,,0.02,0.000000,,2013-10-27 14:11:00,
2013-10-27 06:21:00,42.0,37.0,-100.00,NNE,24,4.0,12.0,82,0.01,,,0.02,0.000000,,2013-10-27 14:21:00,
2013-10-27 06:52:00,41.0,38.0,-100.00,NNE,29,6.0,8.0,90,0.04,,,0.06,0.000000,,2013-10-27 14:52:00,
2013-10-27 07:01:00,41.0,38.0,-100.00,NNE,29,6.0,8.0,90,0.04,,,0.06,0.000000,,2013-10-27 15:01:00,
2013-10-27 07:11:00,41.0,38.0,-100.00,NNE,29,6.0,8.0,90,0.04,,,0.06,0.000000,,2013-10-27 15:11:00,
2013-10-27 07:21:00,41.0,38.0,-100.00,NNE,29,6.0,8.0,90,0.04,,,0.06,0.000000,,2013-10-27 15:21:00,
2013-10-27 07:54:00,41.0,39.0,-100.00,NNE,29,6.0,9.0,91,0.03,,,0.09,0.000000,,2013-10-27 15:54:00,
2013-10-27 08:04:00,41.0,39.0,-100.00,NNE,29,6.0,9.0,91,0.03,,,0.09,0.000000,,2013-10-27 16:04:00,
2013-10-27 08:13:00,41.0,39.0,-100.00,NNE,29,6.0,9.0,91,0.03,,,0.09,0.000000,,2013-10-27 16:13:00,
2013-10-27 08:24:00,41.0,39.0,-100.00,NNE,29,6.0,9.0,91,0.03,,,0.09,0.000000,,2013-10-27 16:24:00,
2013-10-27 08:53:00,40.0,39.0,-100.00,NE,36,5.0,11.0,95,0.06,,,0.15,0.000000,,2013-10-27 16:53:00,
2013-10-27 09:04:00,40.0,39.0,-100.00,NE,36,5.0,11.0,95,0.06,,,0.15,0.000000,,2013-10-27 17:04:00,
2013-10-27 09:13:00,40.0,39.0,-100.00,NE,36,5.0,11.0,95,0.06,,,0.15,0.000000,,2013-10-27 17:13:00,
2013-10-27 09:22:00,40.0,39.0,-100.00,NE,36,5.0,11.0,95,0.06,,,0.15,0.000000,,2013-10-27 17:22:00,
2013-10-27 09:53:00,40.0,38.0,-100.00,NE,40,11.0,19.0,94,0.07,,,0.22,0.000000,,2013-10-27 17:53:00,
2013-10-27 10:01:00,40.0,38.0,-100.00,NE,40,11.0,19.0,94,0.07,,,0.22,0.000000,,2013-10-27 18:01:00,
2013-10-27 10:12:00,40.0,38.0,-100.00,NE,40,11.0,19.0,94,0.07,,,0.22,0.000000,,2013-10-27 18:12:00,
2013-10-27 10:22:00,40.0,38.0,-100.00,NE,40,11.0,19.0,94,0.07,,,0.22,0.000000,,2013-10-27 18:22:00,
2013-10-27 10:52:00,39.0,37.0,-100.00,NE,35,9.0,19.0,94,0.03,,,0.25,5.000000,,2013-10-27 18:52:00,
2013-10-27 11:02:00,39.0,37.0,-100.00,NE,35,9.0,19.0,94,0.03,,,0.25,5.000000,,2013-10-27 19:02:00,
2013-10-27 11:11:00,39.0,37.0,-100.00,NE,35,9.0,19.0,94,0.03,,,0.25,5.000000,,2013-10-27 19:11:00,
2013-10-27 11:22:00,39.0,37.0,-100.00,NE,35,9.0,19.0,94,0.03,,,0.25,5.000000,,2013-10-27 19:22:00,
2013-10-27 11:52:00,38.0,36.0,-100.00,NNE,18,9.0,17.0,94,0.03,,,0.28,18.000000,,2013-10-27 19:52:00,
2013-10-27 12:02:00,38.0,36.0,-100.00,NNE,18,9.0,17.0,94,0.03,,,0.28,18.000000,,2013-10-27 20:02:00,
2013-10-27 12:12:00,38.0,36.0,-100.00,NNE,18,9.0,17.0,94,0.03,,,0.28,18.000000,,2013-10-27 20:12:00,
2013-10-27 12:22:00,38.0,36.0,-100.00,NNE,18,9.0,17.0,94,0.03,,,0.28,18.000000,,2013-10-27 20:22:00,
2013-10-27 12:52:00,39.0,38.0,-100.00,NE,35,9.0,13.0,95,0.02,,,0.30,31.000000,,2013-10-27 20:52:00,
2013-10-27 13:02:00,39.0,38.0,-100.00,NE,35,9.0,13.0,95,0.02,,,0.30,31.000000,,2013-10-27 21:02:00,
2013-10-27 13:11:00,39.0,38.0,-100.00,NE,35,9.0,13.0,95,0.02,,,0.30,31.000000,,2013-10-27 21:11:00,
2013-10-27 13:21:00,39.0,38.0,-100.00,NE,35,9.0,13.0,95,0.02,,,0.30,31.000000,,2013-10-27 21:21:00,
2013-10-27 13:54:00,40.0,39.0,-100.00,NNE,31,8.0,13.0,95,0.02,,,0.32,40.000000,,2013-10-27 21:54:00,
2013-10-27 14:04:00,40.0,39.0,-100.00,NNE,31,8.0,13.0,95,0.02,,,0.32,40.000000,,2013-10-27 22:04:00,
2013-10-27 14:13:00,40.0,39.0,-100.00,NNE,31,8.0,13.0,95,0.02,,,0.32,40.000000,,2013-10-27 22:13:00,
2013-10-27 14:24:00,40.0,39.0,-100.00,NNE,31,8.0,13.0,95,0.02,,,0.32,40.000000,,2013-10-27 22:24:00,
2013-10-27 14:54:00,41.0,39.0,-100.00,NNE,26,7.0,12.0,94,0.03,,,0.35,31.000000,,2013-10-27 22:54:00,
2013-10-27 15:03:00,41.0,39.0,-100.00,NNE,26,7.0,12.0,94,0.03,,,0.35,31.000000,,2013-10-27 23:03:00,
2013-10-27 15:11:00,41.0,39.0,-100.00,NNE,26,7.0,12.0,94,0.03,,,0.35,31.000000,,2013-10-27 23:11:00,
2013-10-27 15:22:00,41.0,39.0,-100.00,NNE,26,7.0,12.0,94,0.03,,,0.35,31.000000,,2013-10-27 23:22:00,
2013-10-27 15:52:00,40.0,38.0,-100.00,NNE,31,9.0,20.0,94,0.08,,,0.43,31.000000,,2013-10-27 23:52:00,
2013-10-27 16:02:00,40.0,38.0,-100.00,NNE,31,9.0,20.0,94,0.08,,,0.43,31.000000,,2013-10-28 00:02:00,
2013-10-27 16:11:00,40.0,38.0,-100.00,NNE,31,9.0,20.0,94,0.08,,,0.43,31.000000,,2013-10-28 00:11:00,
2013-10-27 16:21:00,40.0,38.0,-100.00,NNE,31,9.0,20.0,94,0.08,,,0.43,31.000000,,2013-10-28 00:21:00,
2013-10-27 16:52:00,40.0,38.0,-100.00,NNE,28,8.0,18.0,94,0.09,,,0.52,19.000000,,2013-10-28 00:52:00,
2013-10-27 17:01:00,40.0,38.0,-100.00,NNE,28,8.0,18.0,94,0.09,,,0.52,19.000000,,2013-10-28 01:01:00,
2013-10-27 17:12:00,40.0,38.0,-100.00,NNE,28,8.0,18.0,94,0.09,,,0.52,19.000000,,2013-10-28 01:12:00,
2013-10-27 17:21:00,40.0,38.0,-100.00,NNE,28,8.0,18.0,94,0.09,,,0.52,19.000000,,2013-10-28 01:21:00,
2013-10-27 17:52:00,40.0,39.0,-100.00,NNE,25,8.0,16.0,95,0.13,,,0.65,9.000000,,2013-10-28 01:52:00,
2013-10-27 18:02:00,40.0,39.0,-100.00,NNE,25,8.0,16.0,95,0.13,,,0.65,9.000000,,2013-10-28 02:02:00,
2013-10-27 18:12:00,40.0,39.0,-100.00,NNE,25,8.0,16.0,95,0.13,,,0.65,9.000000,,2013-10-28 02:12:00,
2013-10-27 18:21:00,40.0,39.0,-100.00,NNE,25,8.0,16.0,95,0.13,,,0.65,9.000000,,2013-10-28 02:21:00,
2013-10-27 18:53:00,41.0,40.0,-100.00,NNE,28,7.0,13.0,96,0.19,,,0.84,2.000000,,2013-10-28 02:53:00,
2013-10-27 19:02:00,41.0,40.0,-100.00,NNE,28,7.0,13.0,96,0.19,,,0.84,2.000000,,2013-10-28 03:02:00,
2013-10-27 19:11:00,41.0,40.0,-100.00,NNE,28,7.0,13.0,96,0.19,,,0.84,2.000000,,2013-10-28 03:11:00,
2013-10-27 19:21:00,41.0,40.0,-100.00,NNE,28,7.0,13.0,96,0.19,,,0.84,2.000000,,2013-10-28 03:21:00,
2013-10-27 19:54:00,41.0,40.0,-100.00,NNE,31,10.0,16.0,96,0.04,,,0.88,0.000000,,2013-10-28 03:54:00,
2013-10-27 20:04:00,41.0,40.0,-100.00,NNE,31,10.0,16.0,96,0.04,,,0.88,0.000000,,2013-10-28 04:04:00,
2013-10-27 20:13:00,41.0,40.0,-100.00,NNE,31,10.0,16.0,96,0.04,,,0.88,0.000000,,2013-10-28 04:13:00,
2013-10-27 20:23:00,41.0,40.0,-100.00,NNE,31,10.0,16.0,96,0.04,,,0.88,0.000000,,2013-10-28 04:23:00,
2013-10-27 20:53:00,41.0,40.0,-100.00,NNE,16,8.0,13.0,96,0.01,,,0.89,0.000000,,2013-10-28 04:53:00,
2013-10-27 21:04:00,41.0,40.0,-100.00,NNE,16,8.0,13.0,96,0.01,,,0.89,0.000000,,2013-10-28 05:04:00,
2013-10-27 21:13:00,41.0,40.0,-100.00,NNE,16,8.0,13.0,96,0.01,,,0.89,0.000000,,2013-10-28 05:13:00,
2013-10-27 21:22:00,41.0,40.0,-100.00,NNE,16,8.0,13.0,96,0.01,,,0.89,0.000000,,2013-10-28 05:22:00,
2013-10-27 21:53:00,41.0,40.0,-100.00,NNE,24,7.0,14.0,96,0.01,,,0.90,0.000000,,2013-10-28 05:53:00,
2013-10-27 22:02:00,41.0,40.0,-100.00,NNE,24,7.0,14.0,96,0.01,,,0.90,0.000000,,2013-10-28 06:02:00,
2013-10-27 22:12:00,41.0,40.0,-100.00,NNE,24,7.0,14.0,96,0.01,,,0.90,0.000000,,2013-10-28 06:12:00,
2013-10-27 22:22:00,41.0,40.0,-100.00,NNE,24,7.0,14.0,96,0.01,,,0.90,0.000000,,2013-10-28 06:22:00,
2013-10-27 22:52:00,41.0,40.0,-100.00,NNE,28,7.0,13.0,95,0.00,,,0.90,0.000000,,2013-10-28 06:52:00,
2013-10-27 23:01:00,41.0,40.0,-100.00,NNE,28,7.0,13.0,95,0.00,,,0.90,0.000000,,2013-10-28 07:01:00,
2013-10-27 23:12:00,41.0,40.0,-100.00,NNE,28,7.0,13.0,95,0.00,,,0.90,0.000000,,2013-10-28 07:12:00,
2013-10-27 23:21:00,41.0,40.0,-100.00,NNE,28,7.0,13.0,95,0.00,,,0.90,0.000000,,2013-10-28 07:21:00,
2013-10-27 23:52:00,41.0,40.0,-100.00,NNW,327,2.0,12.0,96,0.02,,,0.92,0.000000,,2013-10-28 07:52:00,